| time (UTC) | temp F | wind direction | speed knots | gust knots | rain 1hr in | rain 24hr in | rain mn in | humidity % | barometer mb |
| 20260902235052 | 91 | 131 | 3.5 | 8.7 | 0.00 | 0.00 | 0.00 | 52 | 1015.3 |
| 20260902234552 | 91 | 193 | 2.6 | 7.0 | 0.00 | 0.00 | 0.00 | 50 | 1015.3 |
| 20260902234053 | 92 | 123 | 1.7 | 5.2 | 0.00 | 0.00 | 0.00 | 48 | 1015.3 |
| 20260902233550 | 92 | 137 | 1.7 | 7.0 | 0.00 | 0.00 | 0.00 | 48 | 1015.2 |
| 20260902233050 | 93 | 145 | 1.7 | 8.7 | 0.00 | 0.00 | 0.00 | 44 | 1015.3 |
| 20260902232551 | 93 | 149 | 3.5 | 8.7 | 0.00 | 0.00 | 0.00 | 44 | 1015.3 |
| 20260902232049 | 93 | 144 | 2.6 | 7.0 | 0.00 | 0.00 | 0.00 | 44 | 1015.3 |
| 20260902231549 | 93 | 128 | 1.7 | 7.0 | 0.00 | 0.00 | 0.00 | 48 | 1015.3 |
| 20260902231049 | 93 | 327 | 2.6 | 7.8 | 0.00 | 0.00 | 0.00 | 47 | 1015.3 |
| 20260902230649 | 94 | 225 | 2.6 | 7.8 | 0.00 | 0.00 | 0.00 | 45 | 1015.3 |
| 20260902230057 | 94 | 170 | 2.6 | 6.1 | 0.00 | 0.00 | 0.00 | 46 | 1015.3 |
| 20260902225552 | 94 | 129 | 1.7 | 7.8 | 0.00 | 0.00 | 0.00 | 48 | 1015.3 |
| 20260902225047 | 94 | 182 | 2.6 | 8.7 | 0.00 | 0.00 | 0.00 | 45 | 1015.3 |
| 20260902224605 | 94 | 223 | 2.6 | 8.7 | 0.00 | 0.00 | 0.00 | 46 | 1015.2 |
| 20260902224046 | 94 | 143 | 1.7 | 7.0 | 0.00 | 0.00 | 0.00 | 45 | 1015.2 |
| 20260902223549 | 94 | 181 | 2.6 | 7.0 | 0.00 | 0.00 | 0.00 | 47 | 1015.3 |
| 20260902223055 | 93 | 173 | 1.7 | 10.4 | 0.00 | 0.00 | 0.00 | 49 | 1015.3 |
| 20260902222545 | 93 | 159 | 4.3 | 10.4 | 0.00 | 0.00 | 0.00 | 48 | 1015.3 |
| 20260902222045 | 91 | 122 | 1.7 | 6.1 | 0.00 | 0.00 | 0.00 | 50 | 1015.4 |
| 20260902221545 | 92 | 130 | 1.7 | 6.1 | 0.00 | 0.00 | 0.00 | 50 | 1015.4 |
| 20260902221045 | 93 | 160 | 0.9 | 10.4 | 0.00 | 0.00 | 0.00 | 48 | 1015.4 |
| 20260902220644 | 94 | 131 | 2.6 | 10.4 | 0.00 | 0.00 | 0.00 | 45 | 1015.3 |
| 20260902220044 | 95 | 175 | 4.3 | 10.4 | 0.00 | 0.00 | 0.00 | 43 | 1015.5 |
| 20260902215543 | 95 | 184 | 2.6 | 7.8 | 0.00 | 0.00 | 0.00 | 43 | 1015.5 |
| 20260902215047 | 95 | 162 | 0.9 | 7.8 | 0.00 | 0.00 | 0.00 | 46 | 1015.5 |
| 20260902214610 | 96 | 159 | 2.6 | 7.8 | 0.00 | 0.00 | 0.00 | 44 | 1015.6 |
| 20260902214042 | 95 | 141 | 1.7 | 7.8 | 0.00 | 0.00 | 0.00 | 46 | 1015.6 |
| 20260902213541 | 95 | 155 | 1.7 | 8.7 | 0.00 | 0.00 | 0.00 | 43 | 1015.7 |
| 20260902213042 | 96 | 175 | 3.5 | 7.8 | 0.00 | 0.00 | 0.00 | 43 | 1015.7 |
| 20260902212541 | 97 | 211 | 3.5 | 8.7 | 0.00 | 0.00 | 0.00 | 41 | 1015.7 |
| 20260902212041 | 98 | 207 | 3.5 | 8.7 | 0.00 | 0.00 | 0.00 | 41 | 1015.6 |
| 20260902211541 | 97 | 173 | 2.6 | 6.1 | 0.00 | 0.00 | 0.00 | 41 | 1015.6 |
| 20260902211040 | 97 | 173 | 1.7 | 6.1 | 0.00 | 0.00 | 0.00 | 40 | 1015.7 |
| 20260902210639 | 97 | 209 | 2.6 | 8.7 | 0.00 | 0.00 | 0.00 | 40 | 1015.7 |
| 20260902210100 | 97 | 206 | 1.7 | 8.7 | 0.00 | 0.00 | 0.00 | 40 | 1015.7 |
| 20260902205600 | 97 | 169 | 2.6 | 7.8 | 0.00 | 0.00 | 0.00 | 42 | 1015.7 |
| 20260902205058 | 98 | 127 | 2.6 | 7.8 | 0.00 | 0.00 | 0.00 | 39 | 1015.7 |
| 20260902204607 | 98 | 200 | 1.7 | 7.0 | 0.00 | 0.00 | 0.00 | 41 | 1015.8 |
| 20260902204058 | 98 | 248 | 1.7 | 8.7 | 0.00 | 0.00 | 0.00 | 41 | 1015.9 |
| 20260902203557 | 98 | 165 | 3.5 | 9.6 | 0.00 | 0.00 | 0.00 | 40 | 1015.9 |
| 20260902203057 | 98 | 213 | 4.3 | 9.6 | 0.00 | 0.00 | 0.00 | 41 | 1016.0 |
| 20260902202557 | 98 | 165 | 2.6 | 8.7 | 0.00 | 0.00 | 0.00 | 45 | 1016.0 |
| 20260902202057 | 98 | 173 | 3.5 | 10.4 | 0.00 | 0.00 | 0.00 | 39 | 1016.1 |
| 20260902201621 | 99 | 113 | 4.3 | 10.4 | 0.00 | 0.00 | 0.00 | 39 | 1016.1 |
| 20260902201055 | 98 | 217 | 2.6 | 9.6 | 0.00 | 0.00 | 0.00 | 40 | 1016.1 |
| 20260902200656 | 99 | 191 | 3.5 | 9.6 | 0.00 | 0.00 | 0.00 | 40 | 1016.3 |
| 20260902200057 | 100 | 180 | 2.6 | 7.0 | 0.00 | 0.00 | 0.00 | 43 | 1016.4 |
| 20260902195556 | 99 | 225 | 3.5 | 9.6 | 0.00 | 0.00 | 0.00 | 40 | 1016.4 |
| 20260902195055 | 98 | 169 | 3.5 | 9.6 | 0.00 | 0.00 | 0.00 | 41 | 1016.5 |
| 20260902194554 | 97 | 219 | 1.7 | 8.7 | 0.00 | 0.00 | 0.00 | 46 | 1016.5 |
| 20260902194052 | 95 | 239 | 0.0 | 7.0 | 0.00 | 0.00 | 0.00 | 49 | 1016.6 |
| 20260902193556 | 95 | 164 | 1.7 | 9.6 | 0.00 | 0.00 | 0.00 | 45 | 1016.7 |
| 20260902193053 | 96 | 124 | 1.7 | 8.7 | 0.00 | 0.00 | 0.00 | 43 | 1016.7 |
| 20260902192552 | 95 | 244 | 1.7 | 5.2 | 0.00 | 0.00 | 0.00 | 46 | 1016.9 |
| 20260902192052 | 96 | 257 | 0.9 | 7.0 | 0.00 | 0.00 | 0.00 | 45 | 1016.9 |
| 20260902191552 | 96 | 191 | 3.5 | 7.0 | 0.00 | 0.00 | 0.00 | 46 | 1016.9 |
| 20260902191050 | 96 | 355 | 1.7 | 7.0 | 0.00 | 0.00 | 0.00 | 46 | 1016.9 |
| 20260902190653 | 93 | 342 | 1.7 | 4.3 | 0.00 | 0.00 | 0.00 | 50 | 1017.0 |
| 20260902190049 | 89 | 40 | 0.9 | 5.2 | 0.00 | 0.00 | 0.00 | 62 | 1017.1 |
| 20260902185548 | 90 | 101 | 0.9 | 5.2 | 0.00 | 0.00 | 0.00 | 58 | 1017.3 |
| 20260902185047 | 92 | 200 | 0.9 | 3.5 | 0.00 | 0.00 | 0.00 | 60 | 1017.2 |
| 20260902184547 | 94 | 323 | 0.9 | 4.3 | 0.00 | 0.00 | 0.00 | 47 | 1017.3 |
| 20260902184046 | 95 | 294 | 0.9 | 4.3 | 0.00 | 0.00 | 0.00 | 46 | 1017.4 |
| 20260902183546 | 95 | 232 | 0.0 | 4.3 | 0.00 | 0.00 | 0.00 | 45 | 1017.4 |
| 20260902183046 | 96 | 318 | 1.7 | 4.3 | 0.00 | 0.00 | 0.00 | 43 | 1017.5 |
| 20260902182545 | 97 | 264 | 1.7 | 5.2 | 0.00 | 0.00 | 0.00 | 45 | 1017.5 |
| 20260902182045 | 96 | 194 | 0.9 | 6.1 | 0.00 | 0.00 | 0.00 | 47 | 1017.6 |
| 20260902181545 | 96 | 276 | 0.9 | 3.5 | 0.00 | 0.00 | 0.00 | 49 | 1017.7 |
| 20260902181044 | 95 | 167 | 0.0 | 4.3 | 0.00 | 0.00 | 0.00 | 46 | 1017.7 |
| 20260902180644 | 95 | 272 | 1.7 | 4.3 | 0.00 | 0.00 | 0.00 | 46 | 1017.7 |
| 20260902180046 | 95 | 340 | 0.9 | 3.5 | 0.00 | 0.00 | 0.00 | 46 | 1017.7 |
| 20260902175546 | 95 | 315 | 0.9 | 6.1 | 0.00 | 0.00 | 0.00 | 46 | 1017.9 |
| 20260902175045 | 96 | 107 | 1.7 | 6.1 | 0.00 | 0.00 | 0.00 | 46 | 1017.9 |
| 20260902174550 | 95 | 129 | 1.7 | 3.5 | 0.00 | 0.00 | 0.00 | 51 | 1017.8 |
| 20260902174046 | 95 | 82 | 0.0 | 6.1 | 0.00 | 0.00 | 0.00 | 47 | 1018.0 |
| 20260902173543 | 95 | 138 | 2.6 | 6.1 | 0.00 | 0.00 | 0.00 | 45 | 1018.2 |
| 20260902173042 | 95 | 182 | 0.0 | 3.5 | 0.00 | 0.00 | 0.00 | 48 | 1018.1 |
| 20260902172542 | 95 | 192 | 1.7 | 5.2 | 0.00 | 0.00 | 0.00 | 46 | 1018.2 |
| 20260902172044 | 96 | 198 | 2.6 | 5.2 | 0.00 | 0.00 | 0.00 | 43 | 1018.2 |
| 20260902171543 | 96 | 183 | 1.7 | 5.2 | 0.00 | 0.00 | 0.00 | 44 | 1018.3 |
| 20260902171040 | 96 | 15 | 0.9 | 3.5 | 0.00 | 0.00 | 0.00 | 44 | 1018.3 |
| 20260902170510 | 97 | 165 | 0.9 | 4.3 | 0.00 | 0.00 | 0.00 | 48 | 1018.5 |
| 20260902170009 | 96 | 293 | 1.7 | 8.7 | 0.00 | 0.00 | 0.00 | 45 | 1018.5 |
| 20260902165509 | 96 | 279 | 4.3 | 8.7 | 0.00 | 0.00 | 0.00 | 45 | 1018.6 |
| 20260902165011 | 96 | 220 | 0.9 | 6.1 | 0.00 | 0.00 | 0.00 | 48 | 1018.6 |
| 20260902164513 | 96 | 257 | 2.6 | 6.1 | 0.00 | 0.00 | 0.00 | 50 | 1018.7 |
| 20260902164006 | 96 | 294 | 1.7 | 7.0 | 0.00 | 0.00 | 0.00 | 49 | 1018.8 |
| 20260902163503 | 95 | 288 | 1.7 | 7.8 | 0.00 | 0.00 | 0.00 | 49 | 1018.9 |
| 20260902163002 | 94 | 335 | 0.9 | 9.6 | 0.00 | 0.00 | 0.00 | 50 | 1018.9 |
| 20260902162502 | 94 | 322 | 4.3 | 9.6 | 0.00 | 0.00 | 0.00 | 50 | 1019.0 |
| 20260902162100 | 94 | 331 | 3.5 | 7.8 | 0.00 | 0.00 | 0.00 | 50 | 1019.0 |
| 20260902161559 | 94 | 269 | 3.5 | 8.7 | 0.00 | 0.00 | 0.00 | 50 | 1019.0 |
| 20260902161058 | 94 | 323 | 2.6 | 8.7 | 0.00 | 0.00 | 0.00 | 51 | 1019.1 |
| 20260902160509 | 94 | 281 | 1.7 | 10.4 | 0.00 | 0.00 | 0.00 | 52 | 1019.1 |
| 20260902160009 | 94 | 309 | 2.6 | 10.4 | 0.00 | 0.00 | 0.00 | 54 | 1019.1 |
| 20260902155505 | 94 | 307 | 3.5 | 7.8 | 0.00 | 0.00 | 0.00 | 53 | 1019.2 |
| 20260902155007 | 94 | 309 | 0.9 | 9.6 | 0.00 | 0.00 | 0.00 | 56 | 1019.1 |
| 20260902154507 | 93 | 341 | 3.5 | 9.6 | 0.00 | 0.00 | 0.00 | 55 | 1019.1 |
| 20260902154001 | 92 | 238 | 0.9 | 7.8 | 0.00 | 0.00 | 0.00 | 57 | 1019.1 |
| 20260902153600 | 92 | 171 | 2.6 | 10.4 | 0.00 | 0.00 | 0.00 | 57 | 1019.3 |
| 20260902153058 | 92 | 207 | 2.6 | 10.4 | 0.00 | 0.00 | 0.00 | 57 | 1019.2 |
| 20260902152556 | 91 | 263 | 1.7 | 9.6 | 0.00 | 0.00 | 0.00 | 59 | 1019.3 |
| 20260902152055 | 90 | 138 | 5.2 | 9.6 | 0.00 | 0.00 | 0.00 | 59 | 1019.4 |
| 20260902151558 | 89 | 138 | 2.6 | 9.6 | 0.00 | 0.00 | 0.00 | 61 | 1019.3 |
| 20260902151057 | 90 | 301 | 2.6 | 7.8 | 0.00 | 0.00 | 0.00 | 60 | 1019.5 |
| 20260902150506 | 90 | 325 | 0.9 | 7.8 | 0.00 | 0.00 | 0.00 | 59 | 1019.4 |
| 20260902150009 | 90 | 272 | 2.6 | 7.8 | 0.00 | 0.00 | 0.00 | 61 | 1019.4 |
| 20260902145504 | 90 | 242 | 0.9 | 6.1 | 0.00 | 0.00 | 0.00 | 61 | 1019.4 |
| 20260902145001 | 90 | 24 | 3.5 | 7.8 | 0.00 | 0.00 | 0.00 | 60 | 1019.3 |
| 20260902144602 | 89 | 180 | 1.7 | 7.8 | 0.00 | 0.00 | 0.00 | 62 | 1019.4 |
| 20260902144059 | 89 | 223 | 0.9 | 6.1 | 0.00 | 0.00 | 0.00 | 63 | 1019.4 |
| 20260902143558 | 88 | 216 | 1.7 | 7.8 | 0.00 | 0.00 | 0.00 | 63 | 1019.5 |
| 20260902143057 | 88 | 156 | 2.6 | 7.8 | 0.00 | 0.00 | 0.00 | 64 | 1019.4 |
| 20260902142556 | 88 | 177 | 1.7 | 6.1 | 0.00 | 0.00 | 0.00 | 66 | 1019.5 |
| 20260902142054 | 88 | 232 | 1.7 | 5.2 | 0.00 | 0.00 | 0.00 | 66 | 1019.5 |
| 20260902141554 | 87 | 288 | 1.7 | 5.2 | 0.00 | 0.00 | 0.00 | 67 | 1019.5 |
| 20260902141051 | 87 | 313 | 0.9 | 4.3 | 0.00 | 0.00 | 0.00 | 67 | 1019.4 |
| 20260902140502 | 86 | 209 | 0.9 | 5.2 | 0.00 | 0.00 | 0.00 | 69 | 1019.6 |
| 20260902140108 | 85 | 192 | 1.7 | 5.2 | 0.00 | 0.00 | 0.00 | 70 | 1019.7 |
| 20260902135558 | 84 | 173 | 0.9 | 5.2 | 0.00 | 0.00 | 0.00 | 70 | 1019.7 |
| 20260902135056 | 84 | 171 | 0.9 | 5.2 | 0.00 | 0.00 | 0.00 | 70 | 1019.7 |
| 20260902134555 | 83 | 159 | 0.9 | 6.1 | 0.00 | 0.00 | 0.00 | 73 | 1019.7 |
| 20260902134053 | 81 | 228 | 0.0 | 3.5 | 0.00 | 0.00 | 0.00 | 76 | 1019.8 |
| 20260902133552 | 79 | 307 | 0.0 | 4.3 | 0.00 | 0.00 | 0.00 | 82 | 1019.8 |
| 20260902133101 | 76 | 332 | 0.9 | 4.3 | 0.00 | 0.00 | 0.00 | 89 | 1019.8 |
| 20260902132550 | 74 | 186 | 0.0 | 1.7 | 0.00 | 0.00 | 0.00 | 92 | 1019.8 |
| 20260902132048 | 73 | 221 | 0.0 | 1.7 | 0.00 | 0.00 | 0.00 | 93 | 1019.9 |
| 20260902131557 | 72 | 187 | 0.0 | 0.9 | 0.00 | 0.00 | 0.00 | 93 | 1019.9 |
| 20260902131048 | 72 | 166 | 0.0 | 0.9 | 0.00 | 0.00 | 0.00 | 94 | 1019.9 |
| 20260902130650 | 71 | 163 | 0.0 | 0.9 | 0.00 | 0.00 | 0.00 | 94 | 1019.8 |
| 20260902130054 | 71 | 163 | 0.0 | 0.0 | 0.00 | 0.00 | 0.00 | 94 | 1019.8 |
| 20260902125555 | 70 | 163 | 0.0 | 0.0 | 0.00 | 0.00 | 0.00 | 94 | 1019.8 |
| 20260902125051 | 70 | 163 | 0.0 | 0.0 | 0.00 | 0.00 | 0.00 | 95 | 1019.8 |
| 20260902124551 | 69 | 163 | 0.0 | 0.0 | 0.00 | 0.00 | 0.00 | 95 | 1019.9 |
| 20260902124049 | 69 | 163 | 0.0 | 0.0 | 0.00 | 0.00 | 0.00 | 95 | 1019.9 |
| 20260902123550 | 69 | 163 | 0.0 | 0.0 | 0.00 | 0.00 | 0.00 | 94 | 1019.9 |
| 20260902123047 | 69 | 163 | 0.0 | 0.0 | 0.00 | 0.00 | 0.00 | 94 | 1019.8 |
| 20260902122547 | 69 | 163 | 0.0 | 0.0 | 0.00 | 0.00 | 0.00 | 94 | 1019.8 |
| 20260902122045 | 69 | 163 | 0.0 | 0.0 | 0.00 | 0.00 | 0.00 | 95 | 1019.6 |
| 20260902121552 | 69 | 163 | 0.0 | 0.0 | 0.00 | 0.00 | 0.00 | 95 | 1019.7 |
| 20260902121045 | 68 | 163 | 0.0 | 0.0 | 0.00 | 0.00 | 0.00 | 95 | 1019.6 |
| 20260902120645 | 68 | 163 | 0.0 | 0.0 | 0.00 | 0.00 | 0.00 | 95 | 1019.6 |
| 20260902120045 | 68 | 155 | 0.0 | 0.0 | 0.00 | 0.00 | 0.00 | 95 | 1019.5 |
| 20260902115545 | 68 | 155 | 0.0 | 0.0 | 0.00 | 0.00 | 0.00 | 95 | 1019.5 |
| 20260902115044 | 68 | 155 | 0.0 | 0.0 | 0.00 | 0.00 | 0.00 | 95 | 1019.3 |
| 20260902114550 | 68 | 155 | 0.0 | 0.0 | 0.00 | 0.00 | 0.00 | 94 | 1019.3 |
| 20260902114043 | 68 | 155 | 0.0 | 0.0 | 0.00 | 0.00 | 0.00 | 94 | 1019.2 |
| 20260902113542 | 68 | 155 | 0.0 | 0.0 | 0.00 | 0.00 | 0.00 | 94 | 1019.2 |
| 20260902113053 | 68 | 155 | 0.0 | 0.0 | 0.00 | 0.00 | 0.00 | 94 | 1019.2 |
| 20260902112540 | 69 | 155 | 0.0 | 0.0 | 0.00 | 0.00 | 0.00 | 94 | 1019.1 |
| 20260902112039 | 69 | 155 | 0.0 | 0.0 | 0.00 | 0.00 | 0.00 | 94 | 1019.0 |
| 20260902111539 | 69 | 155 | 0.0 | 0.0 | 0.00 | 0.00 | 0.00 | 94 | 1018.8 |
| 20260902111038 | 69 | 155 | 0.0 | 0.0 | 0.00 | 0.00 | 0.00 | 94 | 1018.8 |
| 20260902110640 | 69 | 155 | 0.0 | 0.0 | 0.00 | 0.00 | 0.00 | 94 | 1018.8 |
| 20260902110101 | 69 | 155 | 0.0 | 0.0 | 0.00 | 0.00 | 0.00 | 94 | 1018.7 |
| 20260902105559 | 69 | 155 | 0.0 | 0.0 | 0.00 | 0.00 | 0.00 | 94 | 1018.7 |
| 20260902105059 | 69 | 155 | 0.0 | 0.0 | 0.00 | 0.00 | 0.00 | 94 | 1018.6 |
| 20260902104611 | 69 | 155 | 0.0 | 0.0 | 0.00 | 0.00 | 0.00 | 94 | 1018.7 |
| 20260902104057 | 69 | 155 | 0.0 | 0.0 | 0.00 | 0.00 | 0.00 | 94 | 1018.6 |
| 20260902103557 | 69 | 155 | 0.0 | 0.0 | 0.00 | 0.00 | 0.00 | 94 | 1018.5 |
| 20260902103104 | 69 | 155 | 0.0 | 0.0 | 0.00 | 0.00 | 0.00 | 93 | 1018.7 |
| 20260902102558 | 69 | 155 | 0.0 | 0.0 | 0.00 | 0.00 | 0.00 | 93 | 1018.6 |
| 20260902102056 | 69 | 155 | 0.0 | 0.0 | 0.00 | 0.00 | 0.00 | 93 | 1018.6 |
| 20260902101556 | 70 | 155 | 0.0 | 0.0 | 0.00 | 0.00 | 0.00 | 93 | 1018.6 |
| 20260902101055 | 70 | 155 | 0.0 | 0.0 | 0.00 | 0.00 | 0.00 | 93 | 1018.5 |
| 20260902100654 | 70 | 155 | 0.0 | 0.0 | 0.00 | 0.00 | 0.00 | 92 | 1018.6 |
| 20260902095558 | 70 | 155 | 0.0 | 0.0 | 0.00 | 0.00 | 0.00 | 92 | 1018.5 |
| 20260902095056 | 70 | 155 | 0.0 | 0.0 | 0.00 | 0.00 | 0.00 | 92 | 1018.5 |
| 20260902094557 | 70 | 155 | 0.0 | 0.0 | 0.00 | 0.00 | 0.00 | 92 | 1018.6 |
| 20260902094056 | 70 | 155 | 0.0 | 0.0 | 0.00 | 0.00 | 0.00 | 91 | 1018.6 |
| 20260902093555 | 71 | 155 | 0.0 | 0.0 | 0.00 | 0.00 | 0.00 | 91 | 1018.6 |
| 20260902093055 | 71 | 155 | 0.0 | 0.0 | 0.00 | 0.00 | 0.00 | 91 | 1018.7 |
| 20260902092554 | 71 | 155 | 0.0 | 0.0 | 0.00 | 0.00 | 0.00 | 91 | 1018.7 |
| 20260902092055 | 71 | 155 | 0.0 | 0.0 | 0.00 | 0.00 | 0.00 | 91 | 1018.7 |
| 20260902091604 | 71 | 155 | 0.0 | 0.0 | 0.00 | 0.00 | 0.00 | 91 | 1018.6 |
| 20260902091053 | 71 | 155 | 0.0 | 0.0 | 0.00 | 0.00 | 0.00 | 90 | 1018.6 |
| 20260902090654 | 71 | 155 | 0.0 | 0.0 | 0.00 | 0.00 | 0.00 | 90 | 1018.6 |
| 20260902090058 | 71 | 155 | 0.0 | 0.0 | 0.00 | 0.00 | 0.00 | 90 | 1018.6 |
| 20260902085551 | 71 | 155 | 0.0 | 0.0 | 0.00 | 0.00 | 0.00 | 89 | 1018.4 |
| 20260902085051 | 71 | 155 | 0.0 | 0.0 | 0.00 | 0.00 | 0.00 | 89 | 1018.5 |
| 20260902084557 | 71 | 155 | 0.0 | 0.0 | 0.00 | 0.00 | 0.00 | 90 | 1018.4 |
| 20260902084051 | 72 | 155 | 0.0 | 0.0 | 0.00 | 0.00 | 0.00 | 89 | 1018.4 |
| 20260902083551 | 72 | 155 | 0.0 | 0.0 | 0.00 | 0.00 | 0.00 | 89 | 1018.3 |
| 20260902083111 | 72 | 155 | 0.0 | 0.0 | 0.00 | 0.00 | 0.00 | 89 | 1018.3 |
| 20260902082550 | 72 | 155 | 0.0 | 0.0 | 0.00 | 0.00 | 0.00 | 89 | 1018.3 |
| 20260902082050 | 72 | 155 | 0.0 | 0.0 | 0.00 | 0.00 | 0.00 | 89 | 1018.4 |
| 20260902081550 | 72 | 141 | 0.0 | 0.9 | 0.00 | 0.00 | 0.00 | 89 | 1018.4 |
| 20260902081050 | 72 | 153 | 0.0 | 0.0 | 0.00 | 0.00 | 0.00 | 88 | 1018.4 |
| 20260902080650 | 72 | 153 | 0.0 | 0.0 | 0.00 | 0.00 | 0.00 | 88 | 1018.5 |
| 20260902080043 | 72 | 153 | 0.0 | 0.9 | 0.00 | 0.00 | 0.00 | 88 | 1018.4 |
| 20260902075546 | 73 | 153 | 0.0 | 0.9 | 0.00 | 0.00 | 0.00 | 88 | 1018.4 |
| 20260902075042 | 73 | 153 | 0.0 | 0.0 | 0.00 | 0.00 | 0.00 | 88 | 1018.2 |
| 20260902074542 | 73 | 153 | 0.0 | 1.7 | 0.00 | 0.00 | 0.00 | 88 | 1018.4 |
| 20260902074041 | 73 | 153 | 0.0 | 1.7 | 0.00 | 0.00 | 0.00 | 88 | 1018.2 |
| 20260902073540 | 73 | 150 | 0.0 | 0.0 | 0.00 | 0.00 | 0.00 | 88 | 1018.2 |
| 20260902073041 | 73 | 177 | 0.0 | 0.0 | 0.00 | 0.00 | 0.00 | 88 | 1018.4 |
| 20260902072544 | 73 | 177 | 0.0 | 1.7 | 0.00 | 0.00 | 0.00 | 88 | 1018.4 |
| 20260902072040 | 73 | 142 | 0.0 | 3.5 | 0.00 | 0.00 | 0.00 | 87 | 1018.5 |
| 20260902071540 | 73 | 163 | 0.0 | 3.5 | 0.00 | 0.00 | 0.00 | 88 | 1018.4 |
| 20260902071039 | 73 | 134 | 0.0 | 5.2 | 0.00 | 0.00 | 0.00 | 88 | 1018.4 |
| 20260902070639 | 73 | 130 | 0.9 | 5.2 | 0.00 | 0.00 | 0.00 | 88 | 1018.3 |
| 20260902070101 | 73 | 139 | 0.9 | 6.1 | 0.00 | 0.00 | 0.00 | 88 | 1018.2 |
| 20260902065600 | 73 | 188 | 0.9 | 6.1 | 0.00 | 0.00 | 0.00 | 88 | 1018.4 |
| 20260902065059 | 73 | 147 | 0.0 | 6.1 | 0.00 | 0.00 | 0.00 | 89 | 1018.4 |
| 20260902064559 | 73 | 159 | 1.7 | 6.1 | 0.00 | 0.00 | 0.00 | 89 | 1018.4 |
| 20260902064059 | 73 | 195 | 0.9 | 4.3 | 0.00 | 0.00 | 0.00 | 89 | 1018.4 |
| 20260902063559 | 73 | 159 | 0.9 | 4.3 | 0.00 | 0.00 | 0.00 | 89 | 1018.4 |
| 20260902063058 | 73 | 155 | 0.9 | 4.3 | 0.00 | 0.00 | 0.00 | 89 | 1018.4 |
| 20260902062559 | 73 | 171 | 1.7 | 4.3 | 0.00 | 0.00 | 0.00 | 89 | 1018.4 |
| 20260902062058 | 73 | 152 | 0.9 | 4.3 | 0.00 | 0.00 | 0.00 | 89 | 1018.4 |
| 20260902061558 | 73 | 141 | 0.9 | 2.6 | 0.00 | 0.00 | 0.00 | 88 | 1018.5 |
| 20260902061057 | 73 | 120 | 0.0 | 1.7 | 0.00 | 0.00 | 0.00 | 88 | 1018.5 |
| 20260902060658 | 73 | 155 | 0.0 | 2.6 | 0.00 | 0.00 | 0.00 | 88 | 1018.4 |
| 20260902060105 | 73 | 173 | 0.9 | 4.3 | 0.00 | 0.00 | 0.00 | 88 | 1018.3 |
| 20260902055556 | 74 | 129 | 0.0 | 4.3 | 0.00 | 0.00 | 0.00 | 88 | 1018.3 |
| 20260902055056 | 74 | 122 | 0.9 | 2.6 | 0.00 | 0.00 | 0.00 | 88 | 1018.3 |
| 20260902054606 | 74 | 184 | 0.9 | 3.5 | 0.00 | 0.00 | 0.00 | 89 | 1018.4 |
| 20260902054054 | 74 | 160 | 0.9 | 3.5 | 0.00 | 0.00 | 0.00 | 88 | 1018.2 |
| 20260902053554 | 74 | 135 | 0.9 | 4.3 | 0.00 | 0.00 | 0.00 | 89 | 1018.2 |
| 20260902053105 | 74 | 127 | 1.7 | 4.3 | 0.00 | 0.00 | 0.00 | 89 | 1018.1 |
| 20260902052553 | 74 | 170 | 1.7 | 5.2 | 0.00 | 0.00 | 0.00 | 90 | 1018.1 |
| 20260902052053 | 74 | 126 | 1.7 | 5.2 | 0.00 | 0.00 | 0.00 | 90 | 1018.0 |
| 20260902051602 | 74 | 136 | 0.0 | 4.3 | 0.00 | 0.00 | 0.00 | 90 | 1018.1 |
| 20260902051052 | 74 | 164 | 0.0 | 4.3 | 0.00 | 0.00 | 0.00 | 89 | 1018.0 |
| 20260902050652 | 74 | 155 | 0.0 | 3.5 | 0.00 | 0.00 | 0.00 | 89 | 1018.1 |
| 20260902050058 | 74 | 178 | 0.9 | 3.5 | 0.00 | 0.00 | 0.00 | 89 | 1017.9 |
| 20260902045552 | 74 | 175 | 0.0 | 0.0 | 0.00 | 0.00 | 0.00 | 89 | 1017.9 |
| 20260902045050 | 74 | 154 | 0.0 | 0.0 | 0.00 | 0.00 | 0.00 | 89 | 1017.9 |
| 20260902044551 | 74 | 155 | 0.0 | 1.7 | 0.00 | 0.00 | 0.00 | 89 | 1017.9 |
| 20260902044050 | 74 | 191 | 0.0 | 1.7 | 0.00 | 0.00 | 0.00 | 89 | 1017.8 |
| 20260902043550 | 74 | 164 | 0.0 | 2.6 | 0.00 | 0.00 | 0.00 | 89 | 1017.8 |
| 20260902043058 | 75 | 193 | 0.0 | 2.6 | 0.00 | 0.00 | 0.00 | 89 | 1017.8 |
| 20260902042551 | 75 | 173 | 0.0 | 2.6 | 0.00 | 0.00 | 0.00 | 88 | 1017.7 |
| 20260902042051 | 75 | 178 | 0.0 | 0.0 | 0.00 | 0.00 | 0.00 | 88 | 1017.9 |
| 20260902041550 | 75 | 185 | 0.0 | 0.0 | 0.00 | 0.00 | 0.00 | 88 | 1017.8 |
| 20260902041050 | 75 | 213 | 0.0 | 0.0 | 0.00 | 0.00 | 0.00 | 88 | 1017.8 |
| 20260902040650 | 75 | 196 | 0.0 | 0.0 | 0.00 | 0.00 | 0.00 | 88 | 1017.7 |
| 20260902040049 | 75 | 176 | 0.0 | 0.0 | 0.00 | 0.00 | 0.00 | 89 | 1017.8 |
| 20260902035546 | 75 | 166 | 0.0 | 0.0 | 0.00 | 0.00 | 0.00 | 88 | 1017.7 |
| 20260902035046 | 75 | 187 | 0.0 | 0.9 | 0.00 | 0.00 | 0.00 | 89 | 1017.7 |
| 20260902034546 | 75 | 170 | 0.0 | 0.9 | 0.00 | 0.00 | 0.00 | 88 | 1017.7 |
| 20260902034045 | 76 | 179 | 0.0 | 1.7 | 0.00 | 0.00 | 0.00 | 88 | 1017.8 |
| 20260902033545 | 76 | 177 | 0.0 | 2.6 | 0.00 | 0.00 | 0.00 | 88 | 1017.8 |
| 20260902033046 | 76 | 185 | 0.0 | 2.6 | 0.00 | 0.00 | 0.00 | 88 | 1017.8 |
| 20260902032545 | 76 | 172 | 0.0 | 3.5 | 0.00 | 0.00 | 0.00 | 88 | 1017.8 |
| 20260902032045 | 76 | 177 | 0.0 | 3.5 | 0.00 | 0.00 | 0.00 | 87 | 1017.8 |
| 20260902031545 | 77 | 169 | 0.0 | 2.6 | 0.00 | 0.00 | 0.00 | 86 | 1017.7 |
| 20260902031045 | 77 | 191 | 0.0 | 2.6 | 0.00 | 0.00 | 0.00 | 86 | 1017.7 |
| 20260902030646 | 77 | 163 | 0.0 | 0.9 | 0.00 | 0.00 | 0.00 | 86 | 1017.7 |
| 20260902030042 | 77 | 180 | 0.0 | 0.9 | 0.00 | 0.00 | 0.00 | 86 | 1017.5 |
| 20260902025542 | 77 | 157 | 0.0 | 0.0 | 0.00 | 0.00 | 0.00 | 86 | 1017.4 |
| 20260902025042 | 77 | 157 | 0.0 | 2.6 | 0.00 | 0.00 | 0.00 | 87 | 1017.3 |
| 20260902024542 | 76 | 171 | 0.0 | 2.6 | 0.00 | 0.00 | 0.00 | 87 | 1017.3 |
| 20260902024044 | 77 | 183 | 0.0 | 3.5 | 0.00 | 0.00 | 0.00 | 87 | 1017.3 |
| 20260902023544 | 77 | 136 | 0.0 | 3.5 | 0.00 | 0.00 | 0.00 | 87 | 1017.5 |
| 20260902023046 | 77 | 157 | 0.0 | 4.3 | 0.00 | 0.00 | 0.00 | 86 | 1017.4 |
| 20260902022542 | 77 | 168 | 0.0 | 1.7 | 0.00 | 0.00 | 0.00 | 86 | 1017.2 |
| 20260902022041 | 77 | 177 | 0.0 | 2.6 | 0.00 | 0.00 | 0.00 | 86 | 1017.2 |
| 20260902021540 | 77 | 165 | 0.0 | 2.6 | 0.00 | 0.00 | 0.00 | 85 | 1017.1 |
| 20260902021044 | 78 | 161 | 0.0 | 0.9 | 0.00 | 0.00 | 0.00 | 85 | 1017.1 |
| 20260902020641 | 78 | 150 | 0.0 | 1.7 | 0.00 | 0.00 | 0.00 | 84 | 1017.1 |
| 20260902020039 | 78 | 150 | 0.0 | 1.7 | 0.00 | 0.00 | 0.00 | 84 | 1017.1 |
| 20260902015539 | 78 | 180 | 0.0 | 0.0 | 0.00 | 0.00 | 0.00 | 84 | 1017.0 |
| 20260902015038 | 78 | 142 | 0.0 | 2.6 | 0.00 | 0.00 | 0.00 | 84 | 1017.1 |
| 20260902014538 | 78 | 149 | 0.0 | 3.5 | 0.00 | 0.00 | 0.00 | 84 | 1017.0 |
| 20260902014039 | 78 | 130 | 0.0 | 2.6 | 0.00 | 0.00 | 0.00 | 85 | 1016.9 |
| 20260902013538 | 78 | 164 | 0.0 | 4.3 | 0.00 | 0.00 | 0.00 | 85 | 1016.8 |
| 20260902013038 | 78 | 152 | 0.0 | 4.3 | 0.00 | 0.00 | 0.00 | 84 | 1016.8 |
| 20260902012537 | 78 | 125 | 0.0 | 2.6 | 0.00 | 0.00 | 0.00 | 84 | 1016.8 |
| 20260902012037 | 79 | 142 | 0.0 | 2.6 | 0.00 | 0.00 | 0.00 | 83 | 1016.7 |
| 20260902011550 | 79 | 165 | 0.0 | 2.6 | 0.00 | 0.00 | 0.00 | 82 | 1016.7 |
| 20260902011039 | 79 | 134 | 0.0 | 2.6 | 0.00 | 0.00 | 0.00 | 82 | 1016.6 |
| 20260902010638 | 80 | 113 | 0.0 | 2.6 | 0.00 | 0.00 | 0.00 | 81 | 1016.7 |
| 20260902010056 | 80 | 143 | 0.0 | 2.6 | 0.00 | 0.00 | 0.00 | 81 | 1016.7 |
| 20260902005556 | 80 | 166 | 0.0 | 2.6 | 0.00 | 0.00 | 0.00 | 80 | 1016.4 |
| 20260902005055 | 81 | 115 | 0.0 | 2.6 | 0.00 | 0.00 | 0.00 | 79 | 1016.5 |
| 20260902004555 | 82 | 96 | 0.0 | 2.6 | 0.00 | 0.00 | 0.00 | 77 | 1016.5 |
| 20260902004059 | 82 | 164 | 0.0 | 4.3 | 0.00 | 0.00 | 0.00 | 76 | 1016.4 |
| 20260902003556 | 83 | 160 | 0.0 | 4.3 | 0.00 | 0.00 | 0.00 | 76 | 1016.4 |
| 20260902003100 | 84 | 184 | 0.0 | 1.7 | 0.00 | 0.00 | 0.00 | 74 | 1016.4 |
| 20260902002557 | 84 | 178 | 0.0 | 2.6 | 0.00 | 0.00 | 0.00 | 73 | 1016.5 |
| 20260902002054 | 84 | 157 | 0.0 | 2.6 | 0.00 | 0.00 | 0.00 | 73 | 1016.5 |
| 20260902001558 | 84 | 152 | 0.0 | 5.2 | 0.00 | 0.00 | 0.00 | 74 | 1016.4 |
| 20260902001054 | 85 | 47 | 0.0 | 5.2 | 0.00 | 0.00 | 0.00 | 71 | 1016.4 |
| 20260902000654 | 86 | 161 | 0.9 | 5.2 | 0.00 | 0.00 | 0.00 | 70 | 1016.4 |
| 20260902000056 | 87 | 171 | 0.0 | 2.6 | 0.00 | 0.00 | 0.00 | 67 | 1016.5 |
| 20260901235552 | 87 | 180 | 0.0 | 5.2 | 0.00 | 0.00 | 0.00 | 67 | 1016.5 |